Regional Weather Roundup
Issued by NWS Albany, NY

Home | Current Version | Previous Version | Text Only | Print | Product List | Glossary On
Versions: 1 2 3 4 5 6 7 8 9 10 11 12 13 14 15 16 17 18 19 20 21 22 23 24 25 26 27 28 29 30 31 32 33 34 35 36 37 38 39 40 41 42 43 44 45 46 47 48 49 50
000
ASUS41 KALY 050710
RWRALY

NEW YORK STATE HOURLY WEATHER ROUNDUP
NATIONAL WEATHER SERVICE ALBANY NY
300 AM EDT SUN JUL 05 2015

NOTE: "FAIR" INDICATES FEW OR NO CLOUDS BELOW 12,000 FEET WITH NO
SIGNIFICANT WEATHER AND/OR NO OBSTRUCTIONS TO VISIBILITY.

NYZ032-033-038>043-046>054-057>066-NYZ062>081-050800-
EAST


CITY           SKY/WX    TMP DP  RH WIND       PRES   REMARKS
ALBANY         PTCLDY    59  56  89 CALM      30.03R FOG
GLENS FALLS    FOG       59  58  96 CALM      30.02S VSB 1/4
POUGHKEEPSIE   CLEAR     58  55  90 CALM      30.04R FOG
NEWBURGH       PTCLDY    59  59 100 CALM      30.06R FOG
MONTGOMERY     CLOUDY    58  58 100 S3        30.05R FOG
WHITE PLAINS   CLEAR     61  58  90 NW3       30.04S
ISLIP          MOCLDY    64  55  72 CALM      30.02F HAZE
NEW YORK CITY  MOCLDY    70  61  73 CALM      30.03F
CENTRAL PARK   CLOUDY    69  58  67 CALM      30.07S
$$

NYZ005>009-017-018-044>046-055-056-050800-
CENTRAL


CITY           SKY/WX    TMP DP  RH WIND       PRES   REMARKS
FULTON         MOCLDY    56  54  93 CALM      30.04S
SYRACUSE       CLEAR     60  58  92 CALM      30.04S
ROME           CLEAR     58  57  97 NE3       30.06R
ELMIRA         CLOUDY    61  61 100 NW5       30.07S
BINGHAMTON     MOCLDY    59  59 100 SW6       30.09R FOG
MONTICELLO     MOCLDY    57  57 100 W5        30.10R VSB 1/2
$$

NYZ026>034-041>043-050800-
NORTH


CITY           SKY/WX    TMP DP  RH WIND       PRES   REMARKS
WATERTOWN      PTCLDY    58  52  80 S5        30.02R
FORT DRUM      NOT AVBL
MASSENA        PTCLDY    63  59  87 SW7       29.98S
SARANAC LAKE   FOG       53  53 100 CALM      30.03R VSB 1/4
PLATTSBURGH    PTCLDY    58  57  97 S3        29.98R FOG
$$

NYZ001>004-010>016-019>021-050800-
WEST


CITY           SKY/WX    TMP DP  RH WIND       PRES   REMARKS
NIAGARA FALLS  CLEAR     61  58  90 SW6       30.06R
BUFFALO        CLEAR     63  55  75 SW9       30.07R
DUNKIRK        CLEAR     60  53  77 S7        30.09R
JAMESTOWN      CLEAR     54  50  87 S5        30.13R
WELLSVILLE     CLEAR     54  52  93 MISG      30.13S FOG
ROCHESTER      CLEAR     60  55  83 SW8       30.06S
PENN YAN       MOCLDY    61  60  97 SW6       30.07S FOG
$$

             KEY
       WCI = WIND CHILL INDEX
       VSB = VISIBILITY
       HX  = HEAT INDEX
$$



USA.gov is the U.S. government's official web portal to all federal, state and local government web resources and services.